www.pogodaiklimat.ru

Погода и климат >> Архив погоды >> Кувейт >> Abraque Al Habari


ПОГОДА в Abraque Al Habari

  • Прогноз погоды в Abraque Al Habari
  • Монитор погоды в Abraque Al Habari
  • Климат города

АРХИВ ПОГОДЫ в Abraque Al Habari

Время (UTC), дата Ветер
(напр.,м/с)
 
Видим.   Явления Облачность Т
(С)
Тd
(С)
f
(%)
Тe
(С)
Тes
(С)
Комфортность P
(гПа)
Po
(гПа)
Тmin
(С)
Tmax
(С)
R
(мм)
R24
(мм)
S
(см)
18 12.11 СЗ 4-4
{7}
5000 м дымка н/о +17.0 +14.7 86 +17 +17 1019.7 1020.0
21 12.11 СЗ 3-4
{5}
4100 м дымка н/о +15.6 +14.5 93 +15 +15 1019.3 1019.0 +15.1 +23.1
00 13.11 СЗ 3-4
{6}
3800 м дымка н/о +14.7 +13.7 94 +14 +14 1018.7 1019.0
03 13.11 З 2-3
{4}
2900 м дымка н/о +13.6 +13.0 96 +13 +13 1019.3 1019.0
06 13.11 С 5-6
{6}
9000 м дымка н/о +17.4 +13.3 77 +17 +17 1020.0 1020.0
09 13.11 С 4-6
{8}
11 км н/о +20.4 +12.6 61 +23 +23 комфорт 1017.9 1018.0
12 13.11 С 3-5
{8}
14 км н/о +21.6 +11.7 53 +24 +24 комфорт 1016.4 1016.0
15 13.11 СВ 2-2
{5}
9000 м дымка н/о +19.7 +15.0 74 +22 +22 комфорт 1016.3 1016.0
18 13.11 В 2-2
{5}
5000 м дымка н/о +17.5 +16.2 92 +18 +18 1016.5 1017.0
21 13.11 ЮВ 1-2
{4}
4400 м дымка н/о +16.4 +15.2 93 +17 +17 1015.0 1015.0 +13.4 +22.1
00 14.11 ЮЗ 8-12
{12}
1600 м дымка {ливн. осадки, дождь} н/о +16.2 +14.6 90 +15 +15 1017.0 1017.0
03 14.11 В 3-3
{15}
4000 м дымка {ливн. осадки, дождь} н/о +15.1 +14.2 94 +14 +14 1014.4 1014.0
06 14.11 В 5-7
{15}
6000 м слаб. дождь {ливн. осадки} н/о +16.5 +14.5 88 +16 +16 1014.5 1015.0
09 14.11 ЮВ 7-10
{13}
1800 м дождь {ливн. осадки} н/о +16.1 +15.6 97 +15 +15 1013.1 1013.0
12 14.11 ЮВ 7-9
{13}
2500 м дождь {ливн. осадки} н/о +16.9 +16.5 97 +16 +16 1011.8 1012.0
15 14.11 ЮВ 4-7
{12}
3900 м слаб. дождь н/о +17.3 +17.0 98 +17 +17 1011.7 1012.0
18 14.11 Ю 5-7
{12}
3100 м дождь н/о +17.7 +17.4 98 +17 +17 1013.2 1013.0
21 14.11 ЮВ 6-11
{17}
19 км слаб. морось {ливн. осадки, дождь} н/о +17.9 +17.0 94 +17 +17 1009.6 1010.0 +15.0 +18.4
00 15.11 Ю 7-11
{17}
20 км слаб. ливневой дождь н/о +17.7 +17.1 96 +17 +17 1011.1 1011.0
03 15.11 ЮВ 4-8
{12}
11 км слаб. дождь {ливн. осадки} н/о +17.8 +17.1 96 +18 +18 1013.1 1013.0
06 15.11 ЮВ 10-13
{13}
20 км в посл. час осадки {ливн. осадки, дождь} н/о +19.1 +18.0 93 +20 +20 1014.1 1014.0
09 15.11 ЮВ 9-13
{15}
14 км слаб. ливневой дождь н/о +20.0 +19.1 95 +23 +23 комфорт 1013.1 1013.0
12 15.11 В 7-8
{16}
14 км в посл. час дождь {ливн. осадки} н/о +20.2 +19.4 95 +24 +24 комфорт 1012.9 1013.0
15 15.11 СВ 5-7
{9}
2800 м дождь {морось} н/о +19.3 +19.2 99 +21 +21 комфорт 1014.2 1014.0
18 15.11 В 8-10
{17}
12 км слаб. дождь {ливн. осадки} н/о +18.8 +17.6 93 +19 +19 1012.8 1013.0
21 15.11 ЮВ 12-19
{19}
10 км слаб. ливневой дождь н/о +19.6 +18.1 91 +21 +21 комфорт 1011.3 1011.0 +17.6 +20.4
00 16.11 Ю 3-3
{19}
10 км {ливн. осадки, дождь} н/о +18.5 +17.7 95 +20 +20 1011.6 1012.0
03 16.11 З 4-5
{9}
11 км {ливн. осадки, дождь} н/о +17.9 +17.0 94 +18 +18 1014.6 1015.0
06 16.11 З 3-5
{9}
19 км {ливн. осадки, дождь} н/о +20.1 +15.1 73 +23 +23 комфорт 1017.1 1017.0
09 16.11 З 8-9
{10}
20 км н/о +22.3 +16.0 68 +26 +26 жарко 1016.4 1016.0
12 16.11 СЗ 6-7
{10}
19 км н/о +22.1 +12.9 56 +25 +25 комфорт 1017.5 1018.0
15 16.11 СЗ 3-4
{7}
20 км н/о +18.7 +16.1 85 +20 +20 1019.1 1019.0
18 16.11 СЗ 3-3
{7}
14 км н/о +16.5 +15.6 94 +16 +16 1021.3 1021.0
21 16.11 З 5-6
{6}
13 км н/о +16.1 +14.6 91 +15 +15 1020.8 1021.0 +15.6 +22.8
00 17.11 З 5-6
{7}
6000 м дымка н/о +15.1 +14.4 96 +14 +14 1021.2 1021.0
03 17.11 СЗ 7-8
{9}
300 м туман {дымка} н/о +14.3 +14.1 99 +12 +12 1022.5 1023.0
06 17.11 З 7-9
{9}
3600 м в посл. час туман {дымка} н/о +16.3 +15.6 96 +15 +15 1023.4 1023.0
09 17.11 СЗ 8-11
{11}
9000 м дымка {туман} н/о +20.5 +15.4 73 +23 +23 комфорт 1021.3 1021.0
12 17.11 СЗ 9-11
{12}
9000 м дымка {туман} н/о +21.1 +14.3 65 +24 +24 комфорт 1020.6 1021.0
15 17.11 СЗ 5-6
{11}
10 км н/о +17.4 +13.6 78 +17 +17 1021.7 1022.0
18 17.11 СЗ 4-5
{11}
4300 м дымка н/о +15.7 +14.5 93 +15 +15 1022.4 1022.0
21 17.11 З 5-6
{6}
4600 м дымка н/о +14.3 +13.5 95 +13 +13 1021.7 1022.0 +13.9 +21.3
00 18.11 З 4-5
{7}
6000 м дымка н/о +13.4 +12.9 97 +12 +12 1021.4 1021.0
03 18.11 З 4-6
{6}
6000 м дымка н/о +12.9 +12.3 96 +11 +11 1022.1 1022.0
06 18.11 З 6-7
{7}
8000 м дымка н/о +16.4 +13.7 84 +15 +15 1022.6 1023.0
09 18.11 СЗ 8-10
{11}
14 км н/о +21.0 +12.1 57 +23 +23 комфорт 1020.6 1021.0
12 18.11 СЗ 8-11
{11}
16 км н/о +21.5 +12.0 55 +24 +24 комфорт 1019.0 1019.0
15 18.11 СЗ 4-4
{11}
17 км н/о +17.6 +13.6 77 +17 +17 1019.7 1020.0
18 18.11 СЗ 4-5
{11}
9000 м дымка н/о +15.7 +14.4 92 +15 +15 1020.3 1020.0
21 18.11 СЗ 5-6
{6}
8000 м дымка н/о +14.7 +13.7 94 +13 +13 1019.9 1020.0 +12.8 +22.0
00 19.11 З 4-4
{6}
6000 м дымка н/о +13.6 +12.6 94 +12 +12 1019.9 1020.0
06 19.11 З 5-6
{6}
14 км н/о +16.0 +11.1 73 +15 +15 1021.5 1022.0
09 19.11 СЗ 7-8
{8}
18 км н/о +17.1 +10.4 65 +16 +16 1020.2 1020.0
12 19.11 З 6-8
{9}
7000 м слаб. дождь {морось} н/о +14.7 +13.2 91 +13 +13 1019.7 1020.0
15 19.11 З 3-4
{8}
9000 м слаб. дождь {ливн. осадки} н/о +14.6 +13.2 91 +14 +14 1020.0 1020.0

 

Местоположение метеостанции Abraque Al Habari (Кувейт): широта 29.30 долгота 47.00 высота над уровнем моря 237 м.

В архиве по умолчанию представлена погода в Abraque Al Habari за последнюю неделю. Архивные данные за месяц целиком и за предыдущие месяцы, начиная с января 2011 года, Вы можете получить, выбрав интересующий диапазон дат из раскрывающегося списка и нажав кнопку "Ввод!".


*Определитесь, кто Вы:
робот инопланетянин человек

Внимание! Время в таблицах - всемирное. Для получения местного времени необходимо прибавить поправку, которая в Abraque Al Habari равна 3 ч.

Смотрите также архив погоды в соседних городах и на ближайших метеорологических станциях:

Погода в Al-Salmi (Кувейт) (38 км)
Погода в Minagish (Кувейт) (57 км)
Погода в Jahra (Кувейт) (65 км)
Погода в Jal Aliyah (Кувейт) (66 км)
Погода в Mitribah (Кувейт) (68 км)
Погода в Sulaibiya (Кувейт) (70 км)
Погода в Experimental Farm (Кувейт) (91 км)
Погода в Kuwait (Кувейт) (95 км)
Погода в Sabriyah (Кувейт) (96 км)
Погода в Kuwait City (Кувейт) (102 км)

Пояснения к столбцам:

Ветер - указаны скорость ветра в м/с - средняя за 10 мин, порывы в срок и между сроками (в фигурных скобках) и направление, откуда дует ветер: С - северный, СВ - северо-восточный, В - восточный, ЮВ - юго-восточный, Ю - южный, ЮЗ - юго-западный, З - западный, СЗ - северо-западный.
Видимость - горизонтальная дальность видимости в метрах или километрах. При видимости от 1 до 10 км при отсутствии осадков обычно наблюдается дымка, при ухудшении видимости до 1 км и менее - туман. В сухую погоду видимость может ухудшаться дымом, пылью или мглою.
Явления - указаны атмосферные явления, наблюдавшиеся в срок или в последний час перед сроком; фигурными скобками обозначены явления, наблюдавшиеся между сроками (за 1-3 часа до срока); квадратными скобками обозначены град или гололедные отложения с указанием их диаметра в мм.
Облачность - указаны через наклонную черту общая и нижняя облачность в баллах и высота нижней границы облаков в метрах; квадратными скобками обозначены формы облаков: Ci - перистые, Cs - перисто-слоистые, Cc - перисто-кучевые, Ac - высококучевые, As - высокослоистые, Sc - слоисто-кучевые, Ns - слоисто-дождевые, Cu - кучевые, Cb - кучево-дождевые. Подробнее классификацию облаков см. в Атласе облаков (PDF).
T - Температура воздуха - температура, измеренная на высоте 2 м над землей.
Td - Температура точки росы - температура, при понижении до которой содержащийся в воздухе водяной пар достигнет насыщения.
f - Относительная влажность воздуха - влажноcть воздуха, измеренная на высоте 2 м над землей.
Te - Эффективная температура - температура, которую ощущает одетый по сезону человек в тени. Характеристика душности погоды. При расчете учитывается влияние влажности воздуха и скорости ветра на теплоощущения человека.
Tes - Эффективная температура на солнце - температура, которую ощущает человек, с поправкой на солнечный нагрев. Характеристика знойности погоды. Зависит от высоты солнца над горизонтом, облачности и скорости ветра. Ночью, в пасмурную погоду, а также при ветре 12 м/с и более поправка равна нулю.
P - Атмосферное давление - приведенное к уровню моря атмосферное давление.
Po - Атмосферное давление - измеренное на уровне метеостанции атмосферное давление.
Tmin - Минимальная температура - минимум температуры воздуха на высоте 2 м над землей.
Tmax - Максимальная температура - максимум температуры воздуха на высоте 2 м над землей.
R - Количество осадков - Количество выпавших осадков за период времени, мм. При наведении курсора мыши на число - период времени, за который выпало указанное количество осадков.
R24 - Количество осадков - Количество выпавших осадков за 24 часа, мм.
S - Снежный покров - Высота снежного покрова, см. При наведении курсора мыши на число - состояние снежного покрова и степень покрытия местности в баллах.